| time (UTC) | temp F | wind direction | speed MPH | gust MPH | rain 1hr in | rain 24hr in | rain mn in | humidity % | barometer mb |
| 20260507130110 | 54 | 39 | 0.0 | 5.0 | 0.00 | 0.01 | 0.01 | 78 | 1011.4 |
| 20260507124525 | 54 | 314 | 0.0 | 3.0 | 0.00 | 0.01 | 0.01 | 79 | 1011.1 |
| 20260507123110 | 53 | 45 | 0.0 | 6.0 | 0.00 | 0.01 | 0.01 | 79 | 1011.1 |
| 20260507121531 | 53 | 56 | 1.0 | 5.0 | 0.00 | 0.01 | 0.01 | 80 | 1011.0 |
| 20260507120006 | 53 | 51 | 1.0 | 6.0 | 0.00 | 0.01 | 0.01 | 80 | 1011.0 |
| 20260507114545 | 53 | 38 | 0.0 | 4.0 | 0.00 | 0.01 | 0.01 | 80 | 1010.8 |
| 20260507113018 | 53 | 78 | 0.0 | 7.0 | 0.00 | 0.01 | 0.01 | 80 | 1010.7 |
| 20260507111556 | 53 | 77 | 0.0 | 5.0 | 0.00 | 0.01 | 0.01 | 81 | 1010.8 |
| 20260507110028 | 53 | 34 | 1.0 | 4.0 | 0.00 | 0.01 | 0.01 | 81 | 1010.9 |
| 20260507104502 | 53 | 3 | 1.0 | 7.0 | 0.00 | 0.01 | 0.01 | 82 | 1010.7 |
| 20260507103042 | 53 | 342 | 0.0 | 2.0 | 0.00 | 0.01 | 0.01 | 84 | 1010.3 |
| 20260507101513 | 53 | 58 | 1.0 | 9.0 | 0.00 | 0.01 | 0.01 | 81 | 1010.1 |
| 20260507094521 | 53 | 25 | 2.0 | 7.0 | 0.00 | 0.01 | 0.01 | 81 | 1009.7 |
| 20260507093103 | 53 | 44 | 3.0 | 8.0 | 0.00 | 0.01 | 0.01 | 82 | 1009.3 |
| 20260507091535 | 53 | 36 | 3.0 | 11.0 | 0.00 | 0.01 | 0.01 | 82 | 1009.5 |
| 20260507090007 | 54 | 253 | 2.0 | 9.0 | 0.00 | 0.01 | 0.01 | 85 | 1009.4 |
| 20260507084550 | 54 | 52 | 3.0 | 11.0 | 0.00 | 0.01 | 0.01 | 86 | 1009.1 |
| 20260507083019 | 55 | 309 | 3.0 | 10.0 | 0.00 | 0.01 | 0.01 | 86 | 1009.0 |
| 20260507081604 | 55 | 51 | 4.0 | 12.0 | 0.01 | 0.01 | 0.01 | 85 | 1008.8 |
| 20260507080030 | 56 | 357 | 4.0 | 14.0 | 0.01 | 0.01 | 0.01 | 86 | 1008.4 |
| 20260507074504 | 57 | 18 | 3.0 | 8.0 | 0.01 | 0.01 | 0.01 | 88 | 1008.2 |
| 20260507073054 | 58 | 199 | 1.0 | 11.0 | 0.01 | 0.01 | 0.01 | 88 | 1007.7 |
| 20260507071515 | 62 | 316 | 2.0 | 9.0 | 0.00 | 0.00 | 0.00 | 88 | 1008.1 |
| 20260507070106 | 63 | 37 | 1.0 | 6.0 | 0.00 | 0.00 | 0.00 | 87 | 1007.7 |
| 20260507064537 | 64 | 13 | 0.0 | 3.0 | 0.00 | 0.00 | 0.00 | 87 | 1007.8 |
| 20260507063001 | 64 | 262 | 1.0 | 4.0 | 0.00 | 0.00 | 0.00 | 87 | 1007.6 |
| 20260507061544 | 63 | 249 | 1.0 | 4.0 | 0.00 | 0.00 | 0.00 | 89 | 1007.4 |
| 20260507060020 | 62 | 91 | 0.0 | 0.0 | 0.00 | 0.00 | 0.00 | 87 | 1007.5 |
| 20260507054556 | 62 | 160 | 0.0 | 0.0 | 0.00 | 0.00 | 0.00 | 87 | 1007.8 |
| 20260507053021 | 62 | 99 | 0.0 | 1.0 | 0.00 | 0.00 | 0.00 | 89 | 1007.6 |
| 20260507051605 | 60 | 107 | 0.0 | 1.0 | 0.00 | 0.00 | 0.00 | 89 | 1007.5 |
| 20260507050035 | 60 | 155 | 0.0 | 1.0 | 0.00 | 0.00 | 0.00 | 89 | 1007.9 |
| 20260507044501 | 59 | 140 | 0.0 | 0.0 | 0.00 | 0.00 | 0.00 | 89 | 1008.1 |
| 20260507043043 | 59 | 163 | 0.0 | 0.0 | 0.00 | 0.00 | 0.00 | 89 | 1008.0 |
| 20260507041522 | 59 | 163 | 0.0 | 0.0 | 0.00 | 0.00 | 0.00 | 89 | 1008.1 |
| 20260507040048 | 58 | 153 | 0.0 | 1.0 | 0.00 | 0.00 | 0.00 | 90 | 1008.1 |
| 20260507034520 | 58 | 113 | 0.0 | 3.0 | 0.00 | 0.00 | 0.00 | 90 | 1008.1 |
| 20260507033100 | 58 | 177 | 0.0 | 1.0 | 0.00 | 0.00 | 0.00 | 89 | 1008.1 |
| 20260507031531 | 58 | 134 | 0.0 | 3.0 | 0.00 | 0.00 | 0.00 | 88 | 1007.9 |
| 20260507030001 | 59 | 127 | 0.0 | 0.0 | 0.00 | 0.00 | 0.00 | 87 | 1008.0 |
| 20260507024554 | 60 | 99 | 0.0 | 0.0 | 0.00 | 0.00 | 0.00 | 87 | 1008.3 |
| 20260507023124 | 60 | 98 | 0.0 | 0.0 | 0.00 | 0.00 | 0.00 | 89 | 1008.3 |
| 20260507021559 | 60 | 99 | 0.0 | 0.0 | 0.00 | 0.00 | 0.00 | 88 | 1008.9 |
| 20260507020024 | 59 | 115 | 0.0 | 2.0 | 0.00 | 0.00 | 0.00 | 88 | 1008.8 |
| 20260507014609 | 60 | 157 | 0.0 | 1.0 | 0.00 | 0.00 | 0.00 | 86 | 1008.6 |
| 20260507013027 | 61 | 146 | 0.0 | 0.0 | 0.00 | 0.00 | 0.00 | 86 | 1008.9 |
| 20260507011608 | 61 | 145 | 0.0 | 0.0 | 0.00 | 0.00 | 0.00 | 85 | 1009.0 |
| 20260507010042 | 62 | 174 | 0.0 | 1.0 | 0.00 | 0.00 | 0.00 | 85 | 1008.9 |
| 20260507004528 | 62 | 118 | 0.0 | 0.0 | 0.00 | 0.00 | 0.00 | 84 | 1008.7 |
| 20260507003054 | 63 | 141 | 0.0 | 1.0 | 0.00 | 0.00 | 0.00 | 83 | 1008.4 |
| 20260507001526 | 63 | 139 | 0.0 | 1.0 | 0.00 | 0.00 | 0.00 | 82 | 1008.3 |
| 20260507000109 | 63 | 143 | 0.0 | 1.0 | 0.00 | 0.00 | 0.00 | 82 | 1008.3 |
| 20260506234538 | 64 | 172 | 0.0 | 2.0 | 0.00 | 0.00 | 0.00 | 81 | 1008.5 |
| 20260506233001 | 65 | 112 | 0.0 | 1.0 | 0.00 | 0.00 | 0.00 | 79 | 1008.3 |
| 20260506231555 | 65 | 171 | 0.0 | 3.0 | 0.00 | 0.00 | 0.00 | 79 | 1008.4 |
| 20260506230013 | 64 | 107 | 0.0 | 3.0 | 0.00 | 0.00 | 0.00 | 80 | 1008.5 |
| 20260506224600 | 65 | 138 | 0.0 | 4.0 | 0.00 | 0.00 | 0.00 | 79 | 1008.2 |
| 20260506223045 | 67 | 52 | 0.0 | 3.0 | 0.00 | 0.00 | 0.00 | 76 | 1008.1 |
| 20260506221502 | 67 | 72 | 0.0 | 6.0 | 0.00 | 0.00 | 0.00 | 76 | 1008.3 |
| 20260506220045 | 67 | 148 | 2.0 | 8.0 | 0.00 | 0.00 | 0.00 | 76 | 1008.3 |
| 20260506214514 | 67 | 92 | 2.0 | 7.0 | 0.00 | 0.00 | 0.00 | 75 | 1008.2 |
| 20260506213127 | 67 | 93 | 2.0 | 8.0 | 0.00 | 0.00 | 0.00 | 75 | 1007.8 |
| 20260506211533 | 68 | 71 | 1.0 | 7.0 | 0.00 | 0.00 | 0.00 | 75 | 1007.9 |
| 20260506210110 | 68 | 123 | 2.0 | 6.0 | 0.00 | 0.00 | 0.00 | 75 | 1007.7 |
| 20260506204545 | 67 | 72 | 2.0 | 7.0 | 0.00 | 0.00 | 0.00 | 76 | 1007.6 |
| 20260506203014 | 66 | 148 | 2.0 | 9.0 | 0.00 | 0.00 | 0.00 | 76 | 1007.7 |
| 20260506201559 | 66 | 105 | 1.0 | 6.0 | 0.00 | 0.00 | 0.00 | 76 | 1007.7 |
| 20260506200016 | 67 | 94 | 3.0 | 9.0 | 0.00 | 0.00 | 0.00 | 76 | 1007.9 |
| 20260506194619 | 67 | 78 | 3.0 | 9.0 | 0.00 | 0.00 | 0.00 | 76 | 1007.9 |
| 20260506193029 | 67 | 129 | 2.0 | 8.0 | 0.00 | 0.00 | 0.00 | 77 | 1008.6 |
| 20260506191502 | 67 | 98 | 3.0 | 9.0 | 0.00 | 0.00 | 0.00 | 77 | 1008.6 |
| 20260506190045 | 66 | 141 | 1.0 | 8.0 | 0.00 | 0.00 | 0.00 | 78 | 1008.7 |
| 20260506184519 | 65 | 110 | 3.0 | 9.0 | 0.00 | 0.00 | 0.00 | 79 | 1008.9 |
| 20260506183105 | 63 | 104 | 2.0 | 9.0 | 0.00 | 0.00 | 0.00 | 82 | 1009.1 |
| 20260506181538 | 61 | 63 | 2.0 | 9.0 | 0.00 | 0.00 | 0.00 | 83 | 1009.3 |
| 20260506180010 | 62 | 146 | 3.0 | 10.0 | 0.00 | 0.00 | 0.00 | 83 | 1009.3 |
| 20260506174545 | 62 | 155 | 1.0 | 9.0 | 0.00 | 0.00 | 0.00 | 84 | 1009.5 |
| 20260506173012 | 62 | 204 | 2.0 | 8.0 | 0.00 | 0.00 | 0.00 | 83 | 1009.4 |
| 20260506171554 | 62 | 128 | 4.0 | 9.0 | 0.00 | 0.00 | 0.00 | 81 | 1009.8 |
| 20260506170018 | 62 | 124 | 3.0 | 9.0 | 0.00 | 0.00 | 0.00 | 81 | 1010.0 |
| 20260506164603 | 62 | 94 | 4.0 | 10.0 | 0.00 | 0.00 | 0.00 | 81 | 1010.5 |
| 20260506163041 | 62 | 75 | 3.0 | 8.0 | 0.00 | 0.00 | 0.00 | 81 | 1010.8 |
| 20260506161514 | 62 | 88 | 3.0 | 6.0 | 0.00 | 0.00 | 0.00 | 81 | 1010.7 |
| 20260506160023 | 62 | 58 | 2.0 | 9.0 | 0.00 | 0.00 | 0.00 | 81 | 1010.9 |
| 20260506154522 | 62 | 196 | 3.0 | 11.0 | 0.00 | 0.00 | 0.00 | 81 | 1011.1 |
| 20260506153021 | 63 | 98 | 3.0 | 11.0 | 0.00 | 0.00 | 0.00 | 78 | 1011.3 |
| 20260506151502 | 64 | 70 | 3.0 | 10.0 | 0.00 | 0.00 | 0.00 | 77 | 1011.1 |
| 20260506150050 | 65 | 91 | 3.0 | 9.0 | 0.00 | 0.00 | 0.00 | 76 | 1011.1 |
| 20260506144519 | 65 | 98 | 3.0 | 11.0 | 0.00 | 0.00 | 0.00 | 77 | 1011.3 |
| 20260506143109 | 65 | 162 | 4.0 | 10.0 | 0.00 | 0.00 | 0.00 | 76 | 1011.4 |
| 20260506141537 | 64 | 56 | 2.0 | 8.0 | 0.00 | 0.00 | 0.00 | 78 | 1011.4 |
| 20260506140009 | 64 | 63 | 3.0 | 9.0 | 0.00 | 0.00 | 0.00 | 77 | 1011.3 |
| 20260506134550 | 63 | 196 | 3.0 | 9.0 | 0.00 | 0.00 | 0.00 | 79 | 1011.5 |
| 20260506133024 | 63 | 160 | 3.0 | 8.0 | 0.00 | 0.00 | 0.00 | 79 | 1011.6 |
| 20260506131603 | 63 | 109 | 2.0 | 9.0 | 0.00 | 0.00 | 0.00 | 79 | 1011.6 |